Regional Weather Roundup
Issued by NWS Little Rock, AR

Home | Current Version | Previous Version | Graphics & Text | Print | Product List | Glossary On
Versions: 1 2 3 4 5 6 7 8 9 10 11 12 13 14 15 16 17 18 19 20 21 22 23 24 25 26 27 28 29 30 31 32 33 34 35 36 37 38 39 40 41 42 43 44 45 46 47 48
000
ASUS44 KLZK 261405
RWRLZK

WEATHER ROUNDUP FOR ARKANSAS
NATIONAL WEATHER SERVICE LITTLE ROCK AR
800 AM CST FRI DEC 26 2014

NOTE: "FAIR" INDICATES FEW OR NO CLOUDS BELOW 12,000 FEET WITH NO
SIGNIFICANT WEATHER AND/OR OBSTRUCTIONS TO VISIBILITY.

ARZ001-003-010-029-261500-
NORTHWEST ARKANSAS

CITY           SKY/WX    TMP DP  RH WIND       PRES   REMARKS
FAYETTEVILLE   CLEAR     43  40  89 S6        30.03R
FORT SMITH     PTCLDY    41  38  89 NE7       30.05R
HARRISON       CLEAR     41  39  93 SE13      30.06R
BENTONVILLE    PTCLDY    48  39  71 S9        30.01R
ROGERS         CLEAR     46  41  82 SE10      30.01R
SILOAM SPGS    MOCLDY    46  37  71 S9        30.01S
HIGHFILL       PTCLDY    45  41  86 S9        30.00R
SPRINGDALE     PTCLDY    46  41  81 S10       30.04R
$$

ARZ004-005-016-261500-
NORTH CENTRAL ARKANSAS

CITY           SKY/WX    TMP DP  RH WIND       PRES   REMARKS
BATESVILLE     CLOUDY    45  36  70 S5        30.16F
FLIPPIN        CLEAR     45  37  76 S8        30.08R
MTN HOME       CLEAR     41  39  93 S7        30.08R
$$

ARZ040-041-261500-
WEST CENTRAL ARKANSAS

CITY           SKY/WX    TMP DP  RH WIND       PRES   REMARKS
MENA           CLOUDY    52  46  82 SE6       30.05S
MOUNT IDA      CLOUDY    48  43  82 CALM      30.07R
$$

ARZ009-017-025-026-028-261500-
NORTHEAST ARKANSAS

CITY           SKY/WX    TMP DP  RH WIND       PRES   REMARKS
CORNING        CLOUDY    39  37  93 S6        30.20R
JONESBORO      CLOUDY    41  38  89 S8        30.20R
NEWPORT        CLOUDY    42  38  86 S9        30.20R
WALNUT RIDGE   CLOUDY    43  36  75 S10       30.18R
BLYTHEVILLE    CLOUDY    42  37  82 S9        30.23R
$$

ARZ022-023-033-042-044-261500-
CENTRAL ARKANSAS

CITY           SKY/WX    TMP DP  RH WIND       PRES   REMARKS
LITTLE ROCK    CLOUDY    44  38  79 E3        30.17R
N LITTLE ROCK  CLOUDY    43  39  88 SE5       30.17R
JACKSONVILLE   CLOUDY    43  37  81 E1        30.16S
SEARCY         CLOUDY    44  38  79 SE3       30.20R
HOT SPRINGS    CLOUDY    45  39  79 SE6       30.12R
RUSSELLVILLE   CLOUDY    46  41  82 E8        30.10R
CLINTON        CLOUDY    41  39  93 CALM      30.15S
$$

ARZ036-261500-
EAST ARKANSAS

CITY           SKY/WX    TMP DP  RH WIND       PRES   REMARKS
WEST MEMPHIS   CLOUDY    42  38  85 SE6       30.21R
$$

ARZ050-053-066-070-073-261500-
SOUTHWEST ARKANSAS

CITY           SKY/WX    TMP DP  RH WIND       PRES   REMARKS
ARKADELPHIA    PTSUNNY   44  42  93 CALM      30.14R
CAMDEN         CLOUDY    45  37  76 MISG      30.15R
TEXARKANA      CLOUDY    48  44  86 SE10      30.08S
EL DORADO      CLOUDY    46  40  79 SE7       30.14S
DE QUEEN       CLOUDY    48  45  89 SE6       30.06R
$$

ARZ056-057-069-261500-
SOUTHEAST ARKANSAS

CITY           SKY/WX    TMP DP  RH WIND       PRES   REMARKS
PINE BLUFF     CLOUDY    41  37  86 E6        30.17R
STUTTGART      CLOUDY    45  37  76 SE10      30.18R
MONTICELLO     CLOUDY    42  37  82 SE6       30.17R

$$




USA.gov is the U.S. government's official web portal to all federal, state and local government web resources and services.